Home > Time Zones > World Clock > Weather > India > Surat > Past weeks

Flag for India Weather past 2 weeks in Surat, Gujarat, India

Now
86 °F

Scattered clouds.


Feels Like: 95 °F
Forecast: 82 / 88 °F
Wind: 9 mph from Southwest

Location: Ahmadabad Airport

Current Time: Jul 7, 2015 at 8:44:07 AM

Latest Report: Jul 7, 2015 at 8:10 AM


Visibility: 2 mi

Pressure: 29.56 "Hg

Humidity: 70%

Dew point: 75 °F

Location of SuratLocation

Historic Weather in Surat — Graph

°F

Surat temperature yesterday

Maximum temperature yesterday: 99 °F (at 2:40 PM)
Minimum temperature yesterday: 84 °F (at 3:40 AM)
Average temperature yesterday: 89 °F

Past Weeks' High & Low Weather Summary

 TemperatureHumidityPressure
High102 °F (Jul 4, 4:40 PM)94% (Jun 24, 6:40 PM)29.77 "Hg (Jun 24, 6:40 PM)
Low79 °F (Jun 24, 6:40 PM)37% (Jul 4, 5:40 PM)29.33 "Hg (Jun 24, 1:40 PM)
Average89 °F67%29.60 "Hg
* Reported Jun 22 8:40 AM — Jul 7 7:40 AM, Surat, Weather by CustomWeather, © 2015

Note: Actual official high and low records may vary slightly from our data, if they occured in-between our weather recording intervals... More about our weather records

Advertising

Surat weather history for previous 24 hours

 ConditionsComfort  
Time TempWeatherWind HumidityBarometerVisibility
7:40 AM
Tue, Jul 7
84 °FScattered clouds.12 mph74%29.56 "Hg2 mi
7:10 AM84 °FBroken clouds.7 mph74%29.56 "Hg2 mi
6:40 AM84 °FBroken clouds.7 mph74%29.56 "Hg2 mi
6:10 AM84 °FPassing clouds.10 mph74%29.56 "Hg2 mi
5:40 AM84 °FPassing clouds.9 mph74%29.56 "Hg2 mi
5:10 AM84 °FPassing clouds.8 mph74%29.56 "Hg2 mi
4:40 AM84 °FPassing clouds.9 mph74%29.53 "Hg2 mi
4:10 AM84 °FPassing clouds.9 mph70%29.53 "Hg2 mi
3:40 AM86 °FPassing clouds.13 mph66%29.53 "Hg2 mi
3:10 AM86 °FPassing clouds.14 mph66%29.53 "Hg2 mi
2:40 AM86 °FPassing clouds.13 mph70%29.53 "Hg2 mi
2:10 AM86 °FPassing clouds.16 mph75%29.53 "Hg2 mi
1:40 AM86 °FPassing clouds.12 mph75%29.53 "Hg2 mi
12:40 AM86 °FPassing clouds.10 mph70%29.56 "Hg2 mi
12:10 AM88 °FPassing clouds.13 mph66%29.56 "Hg2 mi
11:40 PM
Mon, Jul 6
88 °FPassing clouds.12 mph66%29.56 "Hg2 mi
10:40 PM88 °FPassing clouds.12 mph62%29.56 "Hg2 mi
10:10 PM88 °FPassing clouds.14 mph62%29.56 "Hg2 mi
9:40 PM88 °FPassing clouds.14 mph66%29.53 "Hg2 mi
9:10 PM90 °FPassing clouds.15 mph63%29.50 "Hg2 mi
8:40 PM90 °FPassing clouds.12 mph63%29.50 "Hg2 mi
8:10 PM90 °FPassing clouds.14 mph59%29.50 "Hg2 mi
3:10 PM99 °FBroken clouds.16 mph47%29.50 "Hg4 mi
2:40 PM99 °FBroken clouds.17 mph47%29.50 "Hg3 mi
2:10 PM97 °FBroken clouds.15 mph50%29.53 "Hg3 mi
1:40 PM97 °FScattered clouds.16 mph50%29.53 "Hg3 mi
1:10 PM95 °FScattered clouds.18 mph53%29.56 "Hg3 mi
12:10 PM93 °FScattered clouds.15 mph56%29.56 "Hg2 mi
11:40 AM93 °FBroken clouds.16 mph59%29.59 "Hg2 mi
11:10 AM91 °FBroken clouds.16 mph59%29.59 "Hg2 mi
9:40 AM88 °FBroken clouds.15 mph66%29.59 "Hg2 mi
Weather by CustomWeather, © 2015

See weather overviewHow to use our weather pages